Time,TemperatureF,DewpointF,PressureIn,WindDirection,WindDirectionDegrees,WindSpeedMPH,WindSpeedGustMPH,Humidity,HourlyPrecipIn,Conditions,Clouds,dailyrainin,SoftwareType,DateUTC
2013-01-20 00:00:00,40.8,25.0,29.62,WNW,292,0.0,0.0,53,0.00,,---,0.00,VWS V14.01,2013-01-20 06:00:00,
2013-01-20 00:05:00,40.6,24.9,29.62,NNW,338,0.0,0.0,53,0.00,,---,0.00,VWS V14.01,2013-01-20 06:05:00,
2013-01-20 00:10:00,40.5,24.7,29.62,NNW,338,0.0,0.0,53,0.00,,---,0.00,VWS V14.01,2013-01-20 06:10:00,
2013-01-20 00:15:00,40.5,25.1,29.62,NNW,338,0.0,0.0,54,0.00,,---,0.00,VWS V14.01,2013-01-20 06:15:00,
2013-01-20 00:20:00,40.5,25.6,29.62,NNW,338,0.0,0.0,55,0.00,,---,0.00,VWS V14.01,2013-01-20 06:20:00,
2013-01-20 00:25:00,40.3,25.0,29.62,NNW,338,0.0,0.0,54,0.00,,---,0.00,VWS V14.01,2013-01-20 06:25:00,
2013-01-20 00:30:00,40.3,24.5,29.62,NNW,338,0.0,0.0,53,0.00,,---,0.00,VWS V14.01,2013-01-20 06:30:00,
2013-01-20 00:35:00,40.3,25.4,29.62,NNW,338,0.0,0.0,55,0.00,,---,0.00,VWS V14.01,2013-01-20 06:35:00,
2013-01-20 00:40:00,40.1,24.8,29.62,NNW,338,0.0,0.0,54,0.00,,---,0.00,VWS V14.01,2013-01-20 06:40:00,
2013-01-20 00:45:00,40.1,24.8,29.62,NNW,338,0.0,0.0,54,0.00,,---,0.00,VWS V14.01,2013-01-20 06:45:00,
2013-01-20 00:46:00,40.1,24.8,29.62,NNW,338,0.0,0.0,54,0.00,,---,0.00,VWS V14.01,2013-01-20 06:46:00,
2013-01-20 00:50:00,39.9,25.9,29.62,NNW,338,0.0,0.0,57,0.00,,---,0.00,VWS V14.01,2013-01-20 06:50:00,
2013-01-20 00:51:00,39.9,26.4,29.62,NNW,338,0.0,0.0,58,0.00,,---,0.00,VWS V14.01,2013-01-20 06:51:00,
2013-01-20 00:55:00,39.9,26.8,29.62,NNW,338,0.0,0.0,59,0.00,,---,0.00,VWS V14.01,2013-01-20 06:55:00,
2013-01-20 00:56:00,39.9,27.2,29.62,NNW,338,0.0,0.0,60,0.00,,---,0.00,VWS V14.01,2013-01-20 06:56:00,
2013-01-20 01:00:00,39.7,27.4,29.62,NNW,338,0.0,0.0,61,0.00,,---,0.00,VWS V14.01,2013-01-20 07:00:00,
2013-01-20 01:01:00,39.7,27.8,29.62,NNW,338,0.0,0.0,62,0.00,,---,0.00,VWS V14.01,2013-01-20 07:01:00,
2013-01-20 01:05:00,39.6,27.6,29.62,NNW,338,0.0,0.0,62,0.00,,---,0.00,VWS V14.01,2013-01-20 07:05:00,
2013-01-20 01:06:00,39.6,28.0,29.62,NW,315,1.1,2.2,63,0.00,,---,0.00,VWS V14.01,2013-01-20 07:06:00,
2013-01-20 01:10:00,39.2,28.4,29.62,West,270,2.5,2.7,65,0.00,,---,0.00,VWS V14.01,2013-01-20 07:10:00,
2013-01-20 01:11:00,39.2,28.8,29.62,West,270,2.5,2.5,66,0.00,,---,0.00,VWS V14.01,2013-01-20 07:11:00,
2013-01-20 01:15:00,38.8,29.2,29.62,West,270,2.2,2.7,68,0.00,,---,0.00,VWS V14.01,2013-01-20 07:15:00,
2013-01-20 01:16:00,38.7,29.0,29.62,West,270,2.0,2.2,68,0.00,,---,0.00,VWS V14.01,2013-01-20 07:16:00,
2013-01-20 01:20:00,38.5,28.9,29.62,West,270,2.0,2.2,68,0.00,,---,0.00,VWS V14.01,2013-01-20 07:20:00,
2013-01-20 01:21:00,38.1,28.1,29.62,West,270,1.3,2.0,67,0.00,,---,0.00,VWS V14.01,2013-01-20 07:21:00,
2013-01-20 01:25:00,37.9,28.3,29.62,West,270,1.3,2.0,68,0.00,,---,0.00,VWS V14.01,2013-01-20 07:25:00,
2013-01-20 01:26:00,37.9,28.3,29.62,West,270,2.0,2.0,68,0.00,,---,0.00,VWS V14.01,2013-01-20 07:26:00,
2013-01-20 01:30:00,37.8,28.5,29.62,West,270,2.0,2.2,69,0.00,,---,0.00,VWS V14.01,2013-01-20 07:30:00,
2013-01-20 01:31:00,37.6,28.7,29.62,West,270,0.9,2.0,70,0.00,,---,0.00,VWS V14.01,2013-01-20 07:31:00,
2013-01-20 01:35:00,37.6,28.7,29.62,NNW,338,0.0,2.5,70,0.00,,---,0.00,VWS V14.01,2013-01-20 07:35:00,
2013-01-20 01:36:00,37.6,28.7,29.62,NNW,338,0.0,1.3,70,0.00,,---,0.00,VWS V14.01,2013-01-20 07:36:00,
2013-01-20 01:40:00,37.6,29.0,29.62,NNW,338,0.0,1.3,71,0.00,,---,0.00,VWS V14.01,2013-01-20 07:40:00,
2013-01-20 01:41:00,37.6,29.0,29.62,NNW,338,0.0,0.0,71,0.00,,---,0.00,VWS V14.01,2013-01-20 07:41:00,
2013-01-20 01:45:00,37.6,29.4,29.62,NNW,338,2.0,2.0,72,0.00,,---,0.00,VWS V14.01,2013-01-20 07:45:00,
2013-01-20 01:46:00,37.8,30.2,29.62,West,270,2.0,2.9,74,0.00,,---,0.00,VWS V14.01,2013-01-20 07:46:00,
2013-01-20 01:50:00,37.6,30.1,29.59,West,270,0.0,2.9,74,0.00,,---,0.00,VWS V14.01,2013-01-20 07:50:00,
2013-01-20 01:51:00,37.6,29.7,29.59,West,270,0.0,2.0,73,0.00,,---,0.00,VWS V14.01,2013-01-20 07:51:00,
2013-01-20 01:55:00,37.6,29.7,29.59,NNW,338,0.0,2.2,73,0.00,,---,0.00,VWS V14.01,2013-01-20 07:55:00,
2013-01-20 01:56:00,37.4,29.5,29.59,NNW,338,0.0,0.0,73,0.00,,---,0.00,VWS V14.01,2013-01-20 07:56:00,
2013-01-20 02:00:00,37.6,29.7,29.59,NNW,338,0.0,0.0,73,0.00,,---,0.00,VWS V14.01,2013-01-20 08:00:00,
2013-01-20 02:01:00,37.6,29.4,29.59,NNW,338,0.0,0.0,72,0.00,,---,0.00,VWS V14.01,2013-01-20 08:01:00,
2013-01-20 02:05:00,37.6,29.4,29.62,NNW,338,0.0,0.0,72,0.00,,---,0.00,VWS V14.01,2013-01-20 08:05:00,
2013-01-20 02:06:00,37.6,29.4,29.62,NNW,338,0.0,0.0,72,0.00,,---,0.00,VWS V14.01,2013-01-20 08:06:00,
2013-01-20 02:10:00,37.8,30.2,29.62,NW,315,2.0,2.0,74,0.00,,---,0.00,VWS V14.01,2013-01-20 08:10:00,
2013-01-20 02:11:00,37.6,30.4,29.62,NW,315,1.3,2.2,75,0.00,,---,0.00,VWS V14.01,2013-01-20 08:11:00,
2013-01-20 02:15:00,37.6,30.4,29.62,NW,315,0.0,2.2,75,0.00,,---,0.00,VWS V14.01,2013-01-20 08:15:00,
2013-01-20 02:16:00,37.6,30.1,29.62,NW,315,0.0,0.0,74,0.00,,---,0.00,VWS V14.01,2013-01-20 08:16:00,
2013-01-20 02:20:00,37.4,29.5,29.62,NW,315,0.0,0.0,73,0.00,,---,0.00,VWS V14.01,2013-01-20 08:20:00,
2013-01-20 02:21:00,37.4,29.5,29.62,NW,315,0.0,0.0,73,0.00,,---,0.00,VWS V14.01,2013-01-20 08:21:00,
2013-01-20 02:25:00,37.4,29.2,29.62,NW,315,0.0,0.0,72,0.00,,---,0.00,VWS V14.01,2013-01-20 08:25:00,
2013-01-20 02:26:00,37.2,29.0,29.62,NW,315,0.0,0.0,72,0.00,,---,0.00,VWS V14.01,2013-01-20 08:26:00,
2013-01-20 02:32:00,37.0,29.2,29.65,NW,315,1.1,2.5,73,0.00,,---,0.00,VWS V14.01,2013-01-20 08:32:00,
2013-01-20 02:35:00,37.0,29.2,29.65,NW,315,1.6,2.5,73,0.00,,---,0.00,VWS V14.01,2013-01-20 08:35:00,
2013-01-20 02:37:00,37.0,29.5,29.65,NW,315,1.3,2.0,74,0.00,,---,0.00,VWS V14.01,2013-01-20 08:37:00,
2013-01-20 02:40:00,37.0,29.5,29.65,NW,315,0.9,2.0,74,0.00,,---,0.00,VWS V14.01,2013-01-20 08:40:00,
2013-01-20 02:42:00,37.0,29.9,29.65,NW,315,1.1,1.6,75,0.00,,---,0.00,VWS V14.01,2013-01-20 08:42:00,
2013-01-20 02:45:00,37.0,29.9,29.65,NW,315,0.0,2.0,75,0.00,,---,0.00,VWS V14.01,2013-01-20 08:45:00,
2013-01-20 02:47:00,37.0,29.9,29.62,NNW,338,1.6,2.0,75,0.00,,---,0.00,VWS V14.01,2013-01-20 08:47:00,
2013-01-20 02:50:00,36.9,29.7,29.62,NNW,338,1.3,2.0,75,0.00,,---,0.00,VWS V14.01,2013-01-20 08:50:00,
2013-01-20 02:52:00,36.9,30.0,29.62,WSW,248,3.1,3.1,76,0.00,,---,0.00,VWS V14.01,2013-01-20 08:52:00,
2013-01-20 02:55:00,36.9,30.0,29.62,NNW,338,2.2,3.1,76,0.00,,---,0.00,VWS V14.01,2013-01-20 08:55:00,
2013-01-20 02:57:00,36.7,29.8,29.62,NNW,338,1.3,2.2,76,0.00,,---,0.00,VWS V14.01,2013-01-20 08:57:00,
2013-01-20 03:00:00,36.7,29.8,29.62,North,0,0.0,2.2,76,0.00,,---,0.00,VWS V14.01,2013-01-20 09:00:00,
2013-01-20 03:02:00,36.7,29.8,29.62,North,0,1.3,1.3,76,0.00,,---,0.00,VWS V14.01,2013-01-20 09:02:00,
2013-01-20 03:05:00,36.9,30.0,29.62,North,0,1.1,1.3,76,0.00,,---,0.00,VWS V14.01,2013-01-20 09:05:00,
2013-01-20 03:07:00,36.9,30.3,29.62,WNW,292,2.5,2.5,77,0.00,,---,0.00,VWS V14.01,2013-01-20 09:07:00,
2013-01-20 03:10:00,36.5,30.0,29.62,WNW,292,1.1,2.5,77,0.00,,---,0.00,VWS V14.01,2013-01-20 09:10:00,
2013-01-20 03:12:00,36.5,30.0,29.62,WNW,292,0.0,1.1,77,0.00,,---,0.00,VWS V14.01,2013-01-20 09:12:00,
2013-01-20 03:15:00,36.7,30.5,29.62,WNW,292,0.0,1.1,78,0.00,,---,0.00,VWS V14.01,2013-01-20 09:15:00,
2013-01-20 03:18:00,36.5,30.3,29.62,WNW,292,1.1,2.2,78,0.00,,---,0.00,VWS V14.01,2013-01-20 09:18:00,
2013-01-20 03:20:00,36.5,30.3,29.62,WNW,292,1.3,2.2,78,0.00,,---,0.00,VWS V14.01,2013-01-20 09:20:00,
2013-01-20 03:23:00,36.3,30.4,29.62,WNW,292,2.0,2.2,79,0.00,,---,0.00,VWS V14.01,2013-01-20 09:23:00,
2013-01-20 03:28:00,36.3,31.1,29.62,WNW,292,2.0,2.5,81,0.00,,---,0.00,VWS V14.01,2013-01-20 09:28:00,
2013-01-20 03:30:00,36.3,31.1,29.62,WNW,292,1.6,2.5,81,0.00,,---,0.00,VWS V14.01,2013-01-20 09:30:00,
2013-01-20 03:33:00,36.1,30.9,29.59,WNW,292,2.5,2.5,81,0.00,,---,0.00,VWS V14.01,2013-01-20 09:33:00,
2013-01-20 03:35:00,36.1,30.9,29.59,WNW,292,2.0,2.5,81,0.00,,---,0.00,VWS V14.01,2013-01-20 09:35:00,
2013-01-20 03:38:00,36.1,31.2,29.59,NNW,338,4.3,4.3,82,0.00,,---,0.00,VWS V14.01,2013-01-20 09:38:00,
2013-01-20 03:40:00,36.3,31.4,29.59,NW,315,4.7,4.7,82,0.00,,---,0.00,VWS V14.01,2013-01-20 09:40:00,
2013-01-20 03:43:00,36.7,32.0,29.59,WNW,292,0.9,6.3,83,0.00,,---,0.00,VWS V14.01,2013-01-20 09:43:00,
2013-01-20 03:45:00,36.7,32.0,29.59,WNW,292,0.0,6.3,83,0.00,,---,0.00,VWS V14.01,2013-01-20 09:45:00,
2013-01-20 03:48:00,36.3,31.7,29.62,WSW,248,4.3,4.9,83,0.00,,---,0.00,VWS V14.01,2013-01-20 09:48:00,
2013-01-20 03:50:00,36.3,31.7,29.62,West,270,4.0,4.9,83,0.00,,---,0.00,VWS V14.01,2013-01-20 09:50:00,
2013-01-20 03:54:00,35.8,30.5,29.62,NNW,338,0.0,4.0,81,0.00,,---,0.00,VWS V14.01,2013-01-20 09:54:00,
2013-01-20 03:55:00,35.8,30.5,29.62,NNW,338,0.0,4.0,81,0.00,,---,0.00,VWS V14.01,2013-01-20 09:55:00,
2013-01-20 03:59:00,35.4,29.6,29.62,WSW,248,2.2,2.5,79,0.00,,---,0.00,VWS V14.01,2013-01-20 09:59:00,
2013-01-20 04:00:00,35.2,29.4,29.62,WSW,248,2.2,2.5,79,0.00,,---,0.00,VWS V14.01,2013-01-20 10:00:00,
2013-01-20 04:04:00,35.1,29.2,29.62,West,270,0.0,2.2,79,0.00,,---,0.00,VWS V14.01,2013-01-20 10:04:00,
2013-01-20 04:05:00,35.1,29.2,29.62,NW,315,0.0,2.2,79,0.00,,---,0.00,VWS V14.01,2013-01-20 10:05:00,
2013-01-20 04:09:00,34.7,28.9,29.62,WNW,292,2.9,4.3,79,0.00,,---,0.00,VWS V14.01,2013-01-20 10:09:00,
2013-01-20 04:10:00,34.7,28.9,29.62,WNW,292,2.9,4.3,79,0.00,,---,0.00,VWS V14.01,2013-01-20 10:10:00,
2013-01-20 04:14:00,34.7,29.2,29.62,SW,225,1.6,2.9,80,0.00,,---,0.00,VWS V14.01,2013-01-20 10:14:00,
2013-01-20 04:15:00,34.5,29.0,29.62,SW,225,1.3,2.9,80,0.00,,---,0.00,VWS V14.01,2013-01-20 10:15:00,
2013-01-20 04:19:00,34.3,28.8,29.62,West,270,2.7,2.9,80,0.00,,---,0.00,VWS V14.01,2013-01-20 10:19:00,
2013-01-20 04:20:00,34.3,28.8,29.62,West,270,2.9,2.9,80,0.00,,---,0.00,VWS V14.01,2013-01-20 10:20:00,
2013-01-20 04:24:00,34.3,28.8,29.62,NNW,338,1.1,2.9,80,0.00,,---,0.00,VWS V14.01,2013-01-20 10:24:00,
2013-01-20 04:25:00,34.3,28.8,29.62,NNW,338,1.1,2.9,80,0.00,,---,0.00,VWS V14.01,2013-01-20 10:25:00,
2013-01-20 04:29:00,34.5,29.6,29.62,WNW,292,2.0,3.1,82,0.00,,---,0.00,VWS V14.01,2013-01-20 10:29:00,
2013-01-20 04:30:00,34.5,29.6,29.62,WNW,292,2.0,3.1,82,0.00,,---,0.00,VWS V14.01,2013-01-20 10:30:00,
2013-01-20 04:34:00,34.5,29.9,29.62,NW,315,0.9,2.0,83,0.00,,---,0.00,VWS V14.01,2013-01-20 10:34:00,
2013-01-20 04:35:00,34.5,29.9,29.62,NW,315,0.9,2.0,83,0.00,,---,0.00,VWS V14.01,2013-01-20 10:35:00,
2013-01-20 04:39:00,34.7,30.4,29.62,WNW,292,1.3,2.5,84,0.00,,---,0.00,VWS V14.01,2013-01-20 10:39:00,
2013-01-20 04:40:00,34.7,30.4,29.62,WNW,292,1.3,2.5,84,0.00,,---,0.00,VWS V14.01,2013-01-20 10:40:00,
2013-01-20 04:44:00,34.7,30.4,29.62,NNW,338,0.9,2.2,84,0.00,,---,0.00,VWS V14.01,2013-01-20 10:44:00,
2013-01-20 04:45:00,34.7,30.4,29.62,NNW,338,0.9,2.2,84,0.00,,---,0.00,VWS V14.01,2013-01-20 10:45:00,
2013-01-20 04:49:00,34.9,30.8,29.59,NW,315,1.1,2.5,85,0.00,,---,0.00,VWS V14.01,2013-01-20 10:49:00,
2013-01-20 04:50:00,34.9,30.8,29.59,NW,315,1.1,2.5,85,0.00,,---,0.00,VWS V14.01,2013-01-20 10:50:00,
2013-01-20 04:54:00,34.9,30.8,29.59,NNW,338,2.7,2.9,85,0.00,,---,0.00,VWS V14.01,2013-01-20 10:54:00,
2013-01-20 04:55:00,34.9,30.8,29.59,NNW,338,2.7,2.9,85,0.00,,---,0.00,VWS V14.01,2013-01-20 10:55:00,
2013-01-20 04:59:00,34.9,30.8,29.59,NNW,338,0.0,2.7,85,0.00,,---,0.00,VWS V14.01,2013-01-20 10:59:00,
2013-01-20 05:00:00,34.9,30.8,29.59,NNW,338,0.0,2.7,85,0.00,,---,0.00,VWS V14.01,2013-01-20 11:00:00,
2013-01-20 05:04:00,34.7,30.4,29.62,NNW,338,0.9,1.3,84,0.00,,---,0.00,VWS V14.01,2013-01-20 11:04:00,
2013-01-20 05:05:00,34.7,30.7,29.62,NNW,338,1.3,1.3,85,0.00,,---,0.00,VWS V14.01,2013-01-20 11:05:00,
2013-01-20 05:09:00,34.9,30.8,29.62,NNW,338,2.0,2.0,85,0.00,,---,0.00,VWS V14.01,2013-01-20 11:09:00,
2013-01-20 05:10:00,34.9,30.8,29.62,NNW,338,2.0,2.0,85,0.00,,---,0.00,VWS V14.01,2013-01-20 11:10:00,
2013-01-20 05:14:00,34.7,30.7,29.62,WNW,292,2.0,2.0,85,0.00,,---,0.00,VWS V14.01,2013-01-20 11:14:00,
2013-01-20 05:15:00,34.7,30.7,29.62,NW,315,1.3,2.0,85,0.00,,---,0.00,VWS V14.01,2013-01-20 11:15:00,
2013-01-20 05:19:00,34.5,30.8,29.59,NW,315,1.3,2.2,86,0.00,,---,0.00,VWS V14.01,2013-01-20 11:19:00,
2013-01-20 05:20:00,34.5,30.8,29.59,WNW,292,1.6,3.4,86,0.00,,---,0.00,VWS V14.01,2013-01-20 11:20:00,
2013-01-20 05:24:00,34.7,31.0,29.59,NNW,338,2.9,3.1,86,0.00,,---,0.00,VWS V14.01,2013-01-20 11:24:00,
2013-01-20 05:25:00,34.7,31.0,29.59,NNW,338,3.1,3.1,86,0.00,,---,0.00,VWS V14.01,2013-01-20 11:25:00,
2013-01-20 05:29:00,34.9,31.4,29.59,North,0,3.4,3.4,87,0.00,,---,0.00,VWS V14.01,2013-01-20 11:29:00,
2013-01-20 05:30:00,34.9,31.4,29.59,North,0,3.4,3.4,87,0.00,,---,0.00,VWS V14.01,2013-01-20 11:30:00,
2013-01-20 05:34:00,35.1,31.6,29.62,North,0,3.1,3.1,87,0.00,,---,0.00,VWS V14.01,2013-01-20 11:34:00,
2013-01-20 05:35:00,35.1,31.6,29.62,NNW,338,2.9,3.4,87,0.00,,---,0.00,VWS V14.01,2013-01-20 11:35:00,
2013-01-20 05:40:00,35.1,31.6,29.62,North,0,1.6,2.0,87,0.00,,---,0.00,VWS V14.01,2013-01-20 11:40:00,
2013-01-20 05:45:00,35.1,31.6,29.62,NNE,22,2.2,2.9,87,0.00,,---,0.00,VWS V14.01,2013-01-20 11:45:00,
2013-01-20 05:50:00,35.1,31.6,29.65,NNE,22,2.0,2.2,87,0.00,,---,0.00,VWS V14.01,2013-01-20 11:50:00,
2013-01-20 05:55:00,35.2,31.5,29.65,NNE,22,0.0,0.0,86,0.00,,---,0.00,VWS V14.01,2013-01-20 11:55:00,
2013-01-20 06:00:00,35.1,31.0,29.65,NNE,22,0.0,0.0,85,0.00,,---,0.00,VWS V14.01,2013-01-20 12:00:00,
2013-01-20 06:05:00,35.1,30.7,29.65,NNE,22,0.0,0.0,84,0.00,,---,0.00,VWS V14.01,2013-01-20 12:05:00,
2013-01-20 06:10:00,34.9,30.5,29.65,NW,315,0.0,0.0,84,0.00,,---,0.00,VWS V14.01,2013-01-20 12:10:00,
2013-01-20 06:15:00,34.5,29.9,29.65,NW,315,0.0,0.0,83,0.00,,---,0.00,VWS V14.01,2013-01-20 12:15:00,
2013-01-20 06:20:00,34.2,29.2,29.68,NW,315,0.0,0.0,82,0.00,,---,0.00,VWS V14.01,2013-01-20 12:20:00,
2013-01-20 06:25:00,34.0,28.8,29.68,NW,315,0.0,0.0,81,0.00,,---,0.00,VWS V14.01,2013-01-20 12:25:00,
2013-01-20 06:30:00,34.0,28.8,29.68,NW,315,0.0,0.0,81,0.00,,---,0.00,VWS V14.01,2013-01-20 12:30:00,
2013-01-20 06:35:00,33.8,28.6,29.68,NW,315,0.0,0.0,81,0.00,,---,0.00,VWS V14.01,2013-01-20 12:35:00,
2013-01-20 06:40:00,33.8,28.9,29.68,NW,315,0.0,0.0,82,0.00,,---,0.00,VWS V14.01,2013-01-20 12:40:00,
2013-01-20 06:45:00,34.0,29.1,29.68,NW,315,0.0,0.0,82,0.00,,---,0.00,VWS V14.01,2013-01-20 12:45:00,
2013-01-20 06:50:00,34.0,29.4,29.68,NW,315,0.0,0.0,83,0.00,,---,0.00,VWS V14.01,2013-01-20 12:50:00,
2013-01-20 06:51:00,34.0,29.4,29.68,NW,315,0.0,0.0,83,0.00,,---,0.00,VWS V14.01,2013-01-20 12:51:00,
2013-01-20 06:55:00,34.0,29.4,29.68,NW,315,0.0,0.0,83,0.00,,---,0.00,VWS V14.01,2013-01-20 12:55:00,
2013-01-20 06:56:00,34.0,29.4,29.68,NW,315,0.0,0.0,83,0.00,,---,0.00,VWS V14.01,2013-01-20 12:56:00,
2013-01-20 07:00:00,34.2,29.8,29.68,NW,315,1.1,2.2,84,0.00,,---,0.00,VWS V14.01,2013-01-20 13:00:00,
2013-01-20 07:01:00,34.0,29.7,29.68,NW,315,0.0,1.3,84,0.00,,---,0.00,VWS V14.01,2013-01-20 13:01:00,
2013-01-20 07:05:00,34.0,29.7,29.68,NW,315,0.0,1.3,84,0.00,,---,0.00,VWS V14.01,2013-01-20 13:05:00,
2013-01-20 07:06:00,33.8,29.5,29.68,NW,315,0.0,0.0,84,0.00,,---,0.00,VWS V14.01,2013-01-20 13:06:00,
2013-01-20 07:10:00,33.8,29.5,29.68,NW,315,0.0,0.0,84,0.00,,---,0.00,VWS V14.01,2013-01-20 13:10:00,
2013-01-20 07:11:00,33.8,29.5,29.68,NW,315,2.5,2.5,84,0.00,,---,0.00,VWS V14.01,2013-01-20 13:11:00,
2013-01-20 07:15:00,33.8,29.5,29.68,NW,315,1.3,2.5,84,0.00,,---,0.00,VWS V14.01,2013-01-20 13:15:00,
2013-01-20 07:16:00,33.8,29.8,29.68,NW,315,0.9,1.3,85,0.00,,---,0.00,VWS V14.01,2013-01-20 13:16:00,
2013-01-20 07:20:00,33.8,29.8,29.68,NW,315,0.9,1.3,85,0.00,,---,0.00,VWS V14.01,2013-01-20 13:20:00,
2013-01-20 07:21:00,33.8,29.8,29.68,NW,315,0.9,0.9,85,0.00,,---,0.00,VWS V14.01,2013-01-20 13:21:00,
2013-01-20 07:25:00,33.8,29.8,29.68,NNW,338,1.6,2.0,85,0.00,,---,0.00,VWS V14.01,2013-01-20 13:25:00,
2013-01-20 07:26:00,33.8,29.8,29.68,NNW,338,1.3,1.6,85,0.00,,---,0.00,VWS V14.01,2013-01-20 13:26:00,
2013-01-20 07:30:00,33.8,30.1,29.68,NW,315,2.5,2.5,86,0.00,,---,0.00,VWS V14.01,2013-01-20 13:30:00,
2013-01-20 07:31:00,34.0,30.2,29.68,NNW,338,2.7,2.7,86,0.00,,---,0.00,VWS V14.01,2013-01-20 13:31:00,
2013-01-20 07:35:00,34.2,30.4,29.68,NNW,338,2.2,2.7,86,0.00,,---,0.00,VWS V14.01,2013-01-20 13:35:00,
2013-01-20 07:36:00,34.0,30.5,29.68,NNW,338,1.6,2.2,87,0.00,,---,0.00,VWS V14.01,2013-01-20 13:36:00,
2013-01-20 07:40:00,34.0,30.5,29.68,NNW,338,2.0,2.2,87,0.00,,---,0.00,VWS V14.01,2013-01-20 13:40:00,
2013-01-20 07:41:00,34.0,30.5,29.68,NNW,338,2.0,2.0,87,0.00,,---,0.00,VWS V14.01,2013-01-20 13:41:00,
2013-01-20 07:45:00,34.0,30.5,29.68,NNW,338,1.3,2.0,87,0.00,,---,0.00,VWS V14.01,2013-01-20 13:45:00,
2013-01-20 07:46:00,34.0,30.5,29.68,NNW,338,0.0,1.3,87,0.00,,---,0.00,VWS V14.01,2013-01-20 13:46:00,
2013-01-20 07:50:00,34.0,30.5,29.68,NNW,338,0.0,1.3,87,0.00,,---,0.00,VWS V14.01,2013-01-20 13:50:00,
2013-01-20 07:51:00,34.2,31.0,29.68,NNW,338,0.0,0.0,88,0.00,,---,0.00,VWS V14.01,2013-01-20 13:51:00,
2013-01-20 07:55:00,34.0,30.8,29.68,NNW,338,0.0,0.0,88,0.00,,---,0.00,VWS V14.01,2013-01-20 13:55:00,
2013-01-20 07:56:00,34.0,30.8,29.68,NNW,338,0.0,0.0,88,0.00,,---,0.00,VWS V14.01,2013-01-20 13:56:00,
2013-01-20 08:00:00,34.0,30.8,29.68,NW,315,0.0,3.4,88,0.00,,---,0.00,VWS V14.01,2013-01-20 14:00:00,
2013-01-20 08:01:00,34.2,31.0,29.68,NW,315,0.9,0.9,88,0.00,,---,0.00,VWS V14.01,2013-01-20 14:01:00,
2013-01-20 08:05:00,34.2,31.3,29.68,WNW,292,3.1,3.1,89,0.00,,---,0.00,VWS V14.01,2013-01-20 14:05:00,
2013-01-20 08:06:00,34.0,31.1,29.68,NW,315,1.1,3.1,89,0.00,,---,0.00,VWS V14.01,2013-01-20 14:06:00,
2013-01-20 08:10:00,34.2,31.3,29.68,NW,315,1.1,3.1,89,0.00,,---,0.00,VWS V14.01,2013-01-20 14:10:00,
2013-01-20 08:11:00,34.2,31.3,29.68,NNW,338,0.9,1.1,89,0.00,,---,0.00,VWS V14.01,2013-01-20 14:11:00,
2013-01-20 08:15:00,34.2,31.3,29.68,West,270,1.6,1.6,89,0.00,,---,0.00,VWS V14.01,2013-01-20 14:15:00,
2013-01-20 08:17:00,34.2,31.3,29.68,West,270,1.1,1.6,89,0.00,,---,0.00,VWS V14.01,2013-01-20 14:17:00,
2013-01-20 08:20:00,34.9,32.2,29.68,West,270,2.5,2.5,90,0.00,,---,0.00,VWS V14.01,2013-01-20 14:20:00,
2013-01-20 08:22:00,34.9,32.2,29.68,West,270,2.2,2.5,90,0.00,,---,0.00,VWS V14.01,2013-01-20 14:22:00,
2013-01-20 08:25:00,34.9,32.5,29.68,West,270,2.2,2.5,91,0.00,,---,0.00,VWS V14.01,2013-01-20 14:25:00,
2013-01-20 08:27:00,35.1,32.7,29.68,West,270,2.2,2.2,91,0.00,,---,0.00,VWS V14.01,2013-01-20 14:27:00,
2013-01-20 08:30:00,35.1,32.7,29.68,WNW,292,0.0,2.2,91,0.00,,---,0.00,VWS V14.01,2013-01-20 14:30:00,
2013-01-20 08:32:00,35.4,33.1,29.68,WNW,292,0.0,0.0,91,0.00,,---,0.00,VWS V14.01,2013-01-20 14:32:00,
2013-01-20 08:35:00,35.6,33.2,29.68,WNW,292,0.0,0.0,91,0.00,,---,0.00,VWS V14.01,2013-01-20 14:35:00,
2013-01-20 08:37:00,36.1,34.0,29.68,NE,45,2.0,2.0,92,0.00,,---,0.00,VWS V14.01,2013-01-20 14:37:00,
2013-01-20 08:40:00,36.7,34.6,29.68,NE,45,1.6,2.2,92,0.00,,---,0.00,VWS V14.01,2013-01-20 14:40:00,
2013-01-20 08:42:00,37.4,35.6,29.68,NE,45,1.6,1.6,93,0.00,,---,0.00,VWS V14.01,2013-01-20 14:42:00,
2013-01-20 08:45:00,37.9,36.1,29.68,NE,45,0.0,1.6,93,0.00,,---,0.00,VWS V14.01,2013-01-20 14:45:00,
2013-01-20 08:47:00,38.7,37.1,29.68,NE,45,0.0,0.0,94,0.00,,---,0.00,VWS V14.01,2013-01-20 14:47:00,
2013-01-20 08:50:00,39.0,37.4,29.68,NE,45,0.0,0.0,94,0.00,,---,0.00,VWS V14.01,2013-01-20 14:50:00,
2013-01-20 08:52:00,39.6,38.0,29.68,NW,315,1.3,2.0,94,0.00,,---,0.00,VWS V14.01,2013-01-20 14:52:00,
2013-01-20 08:55:00,39.9,38.3,29.68,NW,315,2.2,2.2,94,0.00,,---,0.00,VWS V14.01,2013-01-20 14:55:00,
2013-01-20 08:57:00,39.7,37.6,29.68,West,270,2.7,3.6,92,0.00,,---,0.00,VWS V14.01,2013-01-20 14:57:00,
2013-01-20 09:00:00,39.7,36.5,29.68,West,270,2.2,3.6,88,0.00,,---,0.00,VWS V14.01,2013-01-20 15:00:00,
2013-01-20 09:02:00,39.9,34.9,29.68,West,270,2.7,2.7,82,0.00,,---,0.00,VWS V14.01,2013-01-20 15:02:00,
2013-01-20 09:05:00,40.1,34.1,29.68,West,270,2.0,2.7,79,0.00,,---,0.00,VWS V14.01,2013-01-20 15:05:00,
2013-01-20 09:07:00,40.3,33.3,29.68,WSW,248,2.2,2.9,76,0.00,,---,0.00,VWS V14.01,2013-01-20 15:07:00,
2013-01-20 09:10:00,40.5,33.2,29.68,West,270,2.9,3.1,75,0.00,,---,0.00,VWS V14.01,2013-01-20 15:10:00,
2013-01-20 09:12:00,40.5,32.2,29.68,West,270,1.3,3.1,72,0.00,,---,0.00,VWS V14.01,2013-01-20 15:12:00,
2013-01-20 09:15:00,40.6,32.3,29.68,West,270,2.2,3.1,72,0.00,,---,0.00,VWS V14.01,2013-01-20 15:15:00,
2013-01-20 09:17:00,41.0,32.3,29.65,West,270,0.0,2.2,71,0.00,,---,0.00,VWS V14.01,2013-01-20 15:17:00,
2013-01-20 09:20:00,41.0,32.3,29.65,West,270,0.0,2.2,71,0.00,,---,0.00,VWS V14.01,2013-01-20 15:20:00,
2013-01-20 09:22:00,41.5,31.8,29.65,West,270,2.5,2.5,68,0.00,,---,0.00,VWS V14.01,2013-01-20 15:22:00,
2013-01-20 09:25:00,41.7,31.2,29.65,West,270,2.5,2.7,66,0.00,,---,0.00,VWS V14.01,2013-01-20 15:25:00,
2013-01-20 09:27:00,42.1,31.9,29.65,West,270,1.1,2.5,67,0.00,,---,0.00,VWS V14.01,2013-01-20 15:27:00,
2013-01-20 09:30:00,42.4,32.6,29.65,West,270,2.5,2.5,68,0.00,,---,0.00,VWS V14.01,2013-01-20 15:30:00,
2013-01-20 09:32:00,42.8,31.5,29.68,WNW,292,1.6,2.7,64,0.00,,---,0.00,VWS V14.01,2013-01-20 15:32:00,
2013-01-20 09:35:00,43.3,31.6,29.68,WNW,292,1.3,2.7,63,0.00,,---,0.00,VWS V14.01,2013-01-20 15:35:00,
2013-01-20 09:37:00,43.9,31.7,29.68,WNW,292,2.0,2.5,62,0.00,,---,0.00,VWS V14.01,2013-01-20 15:37:00,
2013-01-20 09:40:00,44.1,31.9,29.68,West,270,2.5,2.5,62,0.00,,---,0.00,VWS V14.01,2013-01-20 15:40:00,
2013-01-20 09:42:00,44.8,31.8,29.68,WSW,248,1.3,2.5,60,0.00,,---,0.00,VWS V14.01,2013-01-20 15:42:00,
2013-01-20 09:45:00,45.1,31.3,29.68,WSW,248,0.9,2.5,58,0.00,,---,0.00,VWS V14.01,2013-01-20 15:45:00,
2013-01-20 09:47:00,45.9,31.9,29.68,WNW,292,1.3,2.2,58,0.00,,---,0.00,VWS V14.01,2013-01-20 15:47:00,
2013-01-20 09:50:00,46.2,32.3,29.68,WNW,292,1.3,2.2,58,0.00,,---,0.00,VWS V14.01,2013-01-20 15:50:00,
2013-01-20 09:52:00,47.3,31.5,29.68,SSW,202,1.6,2.2,54,0.00,,---,0.00,VWS V14.01,2013-01-20 15:52:00,
2013-01-20 09:55:00,47.3,31.0,29.68,ESE,112,1.6,2.2,53,0.00,,---,0.00,VWS V14.01,2013-01-20 15:55:00,
2013-01-20 09:57:00,48.4,26.4,29.68,SSW,202,3.4,3.4,42,0.00,,---,0.00,VWS V14.01,2013-01-20 15:57:00,
2013-01-20 10:00:00,48.6,28.2,29.68,ESE,112,3.4,3.4,45,0.00,,---,0.00,VWS V14.01,2013-01-20 16:00:00,
2013-01-20 10:03:00,48.7,26.7,29.68,SSE,158,1.1,3.4,42,0.00,,---,0.00,VWS V14.01,2013-01-20 16:03:00,
2013-01-20 10:05:00,49.5,29.0,29.68,SSE,158,3.1,3.4,45,0.00,,---,0.00,VWS V14.01,2013-01-20 16:05:00,
2013-01-20 10:08:00,49.8,27.7,29.68,East,90,3.4,3.4,42,0.00,,---,0.00,VWS V14.01,2013-01-20 16:08:00,
2013-01-20 10:10:00,50.0,28.4,29.68,ENE,68,3.4,4.0,43,0.00,,---,0.00,VWS V14.01,2013-01-20 16:10:00,
2013-01-20 10:13:00,50.7,27.9,29.68,ESE,112,2.0,3.4,41,0.00,,---,0.00,VWS V14.01,2013-01-20 16:13:00,
2013-01-20 10:15:00,50.5,26.5,29.68,SSW,202,2.0,3.4,39,0.00,,---,0.00,VWS V14.01,2013-01-20 16:15:00,
2013-01-20 10:18:00,50.5,25.2,29.68,SSW,202,1.3,3.8,37,0.00,,---,0.00,VWS V14.01,2013-01-20 16:18:00,
2013-01-20 10:20:00,51.1,27.0,29.68,NNE,22,0.0,3.8,39,0.00,,---,0.00,VWS V14.01,2013-01-20 16:20:00,
2013-01-20 10:23:00,50.7,25.4,29.68,NNE,22,1.1,3.4,37,0.00,,---,0.00,VWS V14.01,2013-01-20 16:23:00,
2013-01-20 10:25:00,51.1,25.7,29.68,South,180,2.7,3.4,37,0.00,,---,0.00,VWS V14.01,2013-01-20 16:25:00,
2013-01-20 10:28:00,51.4,25.4,29.68,SSW,202,3.4,4.7,36,0.00,,---,0.00,VWS V14.01,2013-01-20 16:28:00,
2013-01-20 10:30:00,51.6,25.6,29.68,SSE,158,2.0,4.7,36,0.00,,---,0.00,VWS V14.01,2013-01-20 16:30:00,
2013-01-20 10:33:00,52.0,25.9,29.68,SSE,158,1.3,4.0,36,0.00,,---,0.00,VWS V14.01,2013-01-20 16:33:00,
2013-01-20 10:35:00,52.3,26.2,29.68,SSE,158,3.4,4.0,36,0.00,,---,0.00,VWS V14.01,2013-01-20 16:35:00,
2013-01-20 10:38:00,53.1,26.8,29.68,East,90,2.7,3.4,36,0.00,,---,0.00,VWS V14.01,2013-01-20 16:38:00,
2013-01-20 10:40:00,53.1,26.8,29.68,East,90,3.1,3.4,36,0.00,,---,0.00,VWS V14.01,2013-01-20 16:40:00,
2013-01-20 10:43:00,53.8,26.8,29.68,SE,135,1.1,3.1,35,0.00,,---,0.00,VWS V14.01,2013-01-20 16:43:00,
2013-01-20 10:45:00,54.0,27.6,29.68,East,90,2.9,3.1,36,0.00,,---,0.00,VWS V14.01,2013-01-20 16:45:00,
2013-01-20 10:48:00,54.3,26.6,29.68,East,90,1.6,4.0,34,0.00,,---,0.00,VWS V14.01,2013-01-20 16:48:00,
2013-01-20 10:50:00,54.3,25.9,29.68,East,90,2.7,4.0,33,0.00,,---,0.00,VWS V14.01,2013-01-20 16:50:00,
2013-01-20 10:53:00,54.5,26.0,29.68,ESE,112,3.8,4.9,33,0.00,,---,0.00,VWS V14.01,2013-01-20 16:53:00,
2013-01-20 10:55:00,54.7,26.9,29.68,SE,135,2.5,4.9,34,0.00,,---,0.00,VWS V14.01,2013-01-20 16:55:00,
2013-01-20 10:58:00,55.2,25.9,29.68,East,90,2.7,4.3,32,0.00,,---,0.00,VWS V14.01,2013-01-20 16:58:00,
2013-01-20 11:00:00,55.2,24.4,29.68,ESE,112,6.5,6.5,30,0.00,,---,0.00,VWS V14.01,2013-01-20 17:00:00,
2013-01-20 11:03:00,55.4,25.3,29.65,SSE,158,2.0,6.5,31,0.00,,---,0.00,VWS V14.01,2013-01-20 17:03:00,
2013-01-20 11:05:00,55.6,24.7,29.65,SE,135,2.9,6.5,30,0.00,,---,0.00,VWS V14.01,2013-01-20 17:05:00,
2013-01-20 11:08:00,55.9,25.0,29.65,East,90,1.1,6.5,30,0.00,,---,0.00,VWS V14.01,2013-01-20 17:08:00,
2013-01-20 11:10:00,55.9,24.2,29.65,ESE,112,4.3,6.5,29,0.00,,---,0.00,VWS V14.01,2013-01-20 17:10:00,
2013-01-20 11:13:00,55.9,24.2,29.65,SE,135,2.9,6.0,29,0.00,,---,0.00,VWS V14.01,2013-01-20 17:13:00,
2013-01-20 11:15:00,55.9,24.2,29.65,SSE,158,2.7,6.0,29,0.00,,---,0.00,VWS V14.01,2013-01-20 17:15:00,
2013-01-20 11:18:00,55.9,22.5,29.68,East,90,6.5,7.6,27,0.00,,---,0.00,VWS V14.01,2013-01-20 17:18:00,
2013-01-20 11:20:00,55.9,22.5,29.68,East,90,2.9,7.6,27,0.00,,---,0.00,VWS V14.01,2013-01-20 17:20:00,
2013-01-20 11:23:00,56.5,22.9,29.68,East,90,2.9,4.3,27,0.00,,---,0.00,VWS V14.01,2013-01-20 17:23:00,
2013-01-20 11:25:00,56.5,22.9,29.68,ESE,112,5.4,5.4,27,0.00,,---,0.00,VWS V14.01,2013-01-20 17:25:00,
2013-01-20 11:28:00,56.3,22.8,29.68,East,90,4.3,6.5,27,0.00,,---,0.00,VWS V14.01,2013-01-20 17:28:00,
2013-01-20 11:30:00,56.3,22.8,29.68,East,90,4.3,6.5,27,0.00,,---,0.00,VWS V14.01,2013-01-20 17:30:00,
2013-01-20 11:33:00,56.3,22.8,29.68,ESE,112,7.8,7.8,27,0.00,,---,0.00,VWS V14.01,2013-01-20 17:33:00,
2013-01-20 11:35:00,56.3,22.8,29.68,East,90,2.7,7.8,27,0.00,,---,0.00,VWS V14.01,2013-01-20 17:35:00,
2013-01-20 11:38:00,56.1,21.7,29.68,ESE,112,4.7,8.5,26,0.00,,---,0.00,VWS V14.01,2013-01-20 17:38:00,
2013-01-20 11:40:00,56.3,21.9,29.68,ESE,112,5.4,8.5,26,0.00,,---,0.00,VWS V14.01,2013-01-20 17:40:00,
2013-01-20 11:43:00,56.3,21.9,29.68,SSE,158,4.9,8.7,26,0.00,,---,0.00,VWS V14.01,2013-01-20 17:43:00,
2013-01-20 11:45:00,56.3,21.9,29.68,East,90,4.9,8.7,26,0.00,,---,0.00,VWS V14.01,2013-01-20 17:45:00,
2013-01-20 11:48:00,56.7,21.3,29.65,ENE,68,2.9,7.6,25,0.00,,---,0.00,VWS V14.01,2013-01-20 17:48:00,
2013-01-20 11:50:00,56.8,21.4,29.65,ENE,68,4.0,7.6,25,0.00,,---,0.00,VWS V14.01,2013-01-20 17:50:00,
2013-01-20 11:53:00,57.4,21.9,29.65,ESE,112,7.4,7.4,25,0.00,,---,0.00,VWS V14.01,2013-01-20 17:53:00,
2013-01-20 11:55:00,57.4,21.9,29.65,East,90,2.9,7.4,25,0.00,,---,0.00,VWS V14.01,2013-01-20 17:55:00,
2013-01-20 11:58:00,57.4,21.9,29.65,ENE,68,5.8,5.8,25,0.00,,---,0.00,VWS V14.01,2013-01-20 17:58:00,
2013-01-20 12:00:00,57.7,22.2,29.65,East,90,3.4,5.8,25,0.00,,---,0.00,VWS V14.01,2013-01-20 18:00:00,
2013-01-20 12:03:00,57.6,22.0,29.65,SE,135,3.4,6.5,25,0.00,,---,0.00,VWS V14.01,2013-01-20 18:03:00,
2013-01-20 12:05:00,57.6,22.0,29.65,ESE,112,3.6,6.5,25,0.00,,---,0.00,VWS V14.01,2013-01-20 18:05:00,
2013-01-20 12:08:00,57.9,22.3,29.65,ENE,68,4.9,5.6,25,0.00,,---,0.00,VWS V14.01,2013-01-20 18:08:00,
2013-01-20 12:10:00,57.9,22.3,29.65,ESE,112,2.5,5.6,25,0.00,,---,0.00,VWS V14.01,2013-01-20 18:10:00,
2013-01-20 12:13:00,57.6,22.0,29.65,ESE,112,5.4,7.8,25,0.00,,---,0.00,VWS V14.01,2013-01-20 18:13:00,
2013-01-20 12:15:00,57.6,22.0,29.65,ENE,68,5.4,7.8,25,0.00,,---,0.00,VWS V14.01,2013-01-20 18:15:00,
2013-01-20 12:18:00,57.2,21.7,29.62,ESE,112,6.3,7.4,25,0.00,,---,0.00,VWS V14.01,2013-01-20 18:18:00,
2013-01-20 12:20:00,57.0,21.6,29.62,East,90,2.7,7.4,25,0.00,,---,0.00,VWS V14.01,2013-01-20 18:20:00,
2013-01-20 12:23:00,56.8,21.4,29.62,ESE,112,4.0,7.4,25,0.00,,---,0.00,VWS V14.01,2013-01-20 18:23:00,
2013-01-20 12:25:00,56.8,21.4,29.62,East,90,4.0,7.4,25,0.00,,---,0.00,VWS V14.01,2013-01-20 18:25:00,
2013-01-20 12:28:00,57.0,21.6,29.62,East,90,6.3,6.5,25,0.00,,---,0.00,VWS V14.01,2013-01-20 18:28:00,
2013-01-20 12:30:00,57.0,21.6,29.62,ENE,68,6.0,7.4,25,0.00,,---,0.00,VWS V14.01,2013-01-20 18:30:00,
2013-01-20 12:33:00,56.8,21.4,29.59,SSE,158,5.8,8.5,25,0.00,,---,0.00,VWS V14.01,2013-01-20 18:33:00,
2013-01-20 12:35:00,56.8,21.4,29.59,ESE,112,4.0,8.5,25,0.00,,---,0.00,VWS V14.01,2013-01-20 18:35:00,
2013-01-20 12:38:00,56.8,21.4,29.59,ESE,112,4.3,8.1,25,0.00,,---,0.00,VWS V14.01,2013-01-20 18:38:00,
2013-01-20 12:40:00,56.8,21.4,29.59,NNE,22,4.3,8.1,25,0.00,,---,0.00,VWS V14.01,2013-01-20 18:40:00,
2013-01-20 12:44:00,57.0,21.6,29.59,ESE,112,4.0,7.6,25,0.00,,---,0.00,VWS V14.01,2013-01-20 18:44:00,
2013-01-20 12:45:00,57.0,21.6,29.59,ESE,112,3.6,7.6,25,0.00,,---,0.00,VWS V14.01,2013-01-20 18:45:00,
2013-01-20 12:49:00,57.0,21.6,29.62,ESE,112,6.5,6.5,25,0.00,,---,0.00,VWS V14.01,2013-01-20 18:49:00,
2013-01-20 12:50:00,57.2,21.7,29.62,East,90,6.0,6.5,25,0.00,,---,0.00,VWS V14.01,2013-01-20 18:50:00,
2013-01-20 12:54:00,57.4,21.9,29.62,SE,135,4.3,6.0,25,0.00,,---,0.00,VWS V14.01,2013-01-20 18:54:00,
2013-01-20 12:55:00,57.4,21.9,29.62,SE,135,3.1,6.0,25,0.00,,---,0.00,VWS V14.01,2013-01-20 18:55:00,
2013-01-20 12:59:00,57.7,22.2,29.62,SW,225,2.5,6.5,25,0.00,,---,0.00,VWS V14.01,2013-01-20 18:59:00,
2013-01-20 13:00:00,57.7,22.2,29.62,SW,225,2.5,6.5,25,0.00,,---,0.00,VWS V14.01,2013-01-20 19:00:00,
2013-01-20 13:04:00,57.7,22.2,29.62,ESE,112,2.0,6.5,25,0.00,,---,0.00,VWS V14.01,2013-01-20 19:04:00,
2013-01-20 13:05:00,58.1,22.5,29.62,ESE,112,2.9,6.5,25,0.00,,---,0.00,VWS V14.01,2013-01-20 19:05:00,
2013-01-20 13:09:00,57.9,22.3,29.62,East,90,6.5,6.5,25,0.00,,---,0.00,VWS V14.01,2013-01-20 19:09:00,
2013-01-20 13:10:00,57.9,22.3,29.62,East,90,6.5,6.5,25,0.00,,---,0.00,VWS V14.01,2013-01-20 19:10:00,
2013-01-20 13:14:00,57.7,21.2,29.62,ESE,112,4.0,572.8,24,0.00,,---,0.00,VWS V14.01,2013-01-20 19:14:00,
2013-01-20 13:15:00,57.7,21.2,29.62,ESE,112,4.0,572.8,24,0.00,,---,0.00,VWS V14.01,2013-01-20 19:15:00,
2013-01-20 13:19:00,58.1,22.5,29.62,East,90,6.0,7.8,25,0.00,,---,0.00,VWS V14.01,2013-01-20 19:19:00,
2013-01-20 13:20:00,58.3,22.6,29.62,East,90,6.0,7.8,25,0.00,,---,0.00,VWS V14.01,2013-01-20 19:20:00,
2013-01-20 13:24:00,58.1,21.5,29.62,ESE,112,5.8,6.0,24,0.00,,---,0.00,VWS V14.01,2013-01-20 19:24:00,
2013-01-20 13:25:00,58.1,21.5,29.62,ESE,112,5.8,6.0,24,0.00,,---,0.00,VWS V14.01,2013-01-20 19:25:00,
2013-01-20 13:29:00,57.7,21.2,29.62,ENE,68,4.3,5.8,24,0.00,,---,0.00,VWS V14.01,2013-01-20 19:29:00,
2013-01-20 13:30:00,57.7,21.2,29.62,ENE,68,4.3,5.8,24,0.00,,---,0.00,VWS V14.01,2013-01-20 19:30:00,
2013-01-20 13:34:00,57.9,21.4,29.59,ESE,112,2.0,6.3,24,0.00,,---,0.00,VWS V14.01,2013-01-20 19:34:00,
2013-01-20 13:35:00,57.9,21.4,29.59,ESE,112,2.0,6.3,24,0.00,,---,0.00,VWS V14.01,2013-01-20 19:35:00,
2013-01-20 13:39:00,58.3,21.7,29.59,East,90,3.8,6.3,24,0.00,,---,0.00,VWS V14.01,2013-01-20 19:39:00,
2013-01-20 13:40:00,58.3,21.7,29.59,East,90,3.8,6.3,24,0.00,,---,0.00,VWS V14.01,2013-01-20 19:40:00,
2013-01-20 13:44:00,58.1,21.5,29.59,SSE,158,4.9,9.2,24,0.00,,---,0.00,VWS V14.01,2013-01-20 19:44:00,
2013-01-20 13:45:00,58.1,21.5,29.59,SSE,158,4.9,9.2,24,0.00,,---,0.00,VWS V14.01,2013-01-20 19:45:00,
2013-01-20 13:49:00,57.9,21.4,29.59,East,90,2.0,4.9,24,0.00,,---,0.00,VWS V14.01,2013-01-20 19:49:00,
2013-01-20 13:50:00,57.9,21.4,29.59,East,90,2.0,4.9,24,0.00,,---,0.00,VWS V14.01,2013-01-20 19:50:00,
2013-01-20 13:54:00,58.1,21.5,29.59,SSE,158,4.0,5.8,24,0.00,,---,0.00,VWS V14.01,2013-01-20 19:54:00,
2013-01-20 13:55:00,58.1,21.5,29.59,SSE,158,4.0,5.8,24,0.00,,---,0.00,VWS V14.01,2013-01-20 19:55:00,
2013-01-20 13:59:00,58.1,21.5,29.59,ESE,112,3.8,5.4,24,0.00,,---,5.07,VWS V14.01,2013-01-20 19:59:00,
2013-01-20 14:00:00,58.1,21.5,29.59,East,90,2.7,5.4,24,0.00,,---,0.00,VWS V14.01,2013-01-20 20:00:00,
2013-01-20 14:04:00,58.5,21.8,29.59,NNW,338,2.9,3.4,24,0.00,,---,0.00,VWS V14.01,2013-01-20 20:04:00,
2013-01-20 14:05:00,58.3,21.7,29.59,SSE,158,3.4,4.9,24,0.00,,---,0.00,VWS V14.01,2013-01-20 20:05:00,
2013-01-20 14:09:00,58.6,22.0,29.59,East,90,3.1,4.0,24,0.00,,---,0.00,VWS V14.01,2013-01-20 20:09:00,
2013-01-20 14:10:00,58.6,22.0,29.59,East,90,4.0,4.9,24,0.00,,---,0.00,VWS V14.01,2013-01-20 20:10:00,
2013-01-20 14:14:00,58.5,21.8,29.59,ENE,68,2.2,4.3,24,0.00,,---,0.00,VWS V14.01,2013-01-20 20:14:00,
2013-01-20 14:15:00,58.5,21.8,29.59,ENE,68,2.2,4.3,24,0.00,,---,0.00,VWS V14.01,2013-01-20 20:15:00,
2013-01-20 14:19:00,58.6,22.0,29.59,ESE,112,4.7,4.7,24,0.00,,---,0.00,VWS V14.01,2013-01-20 20:19:00,
2013-01-20 14:20:00,58.6,22.0,29.59,ESE,112,4.0,4.3,24,0.00,,---,0.00,VWS V14.01,2013-01-20 20:20:00,
2013-01-20 14:24:00,58.5,21.8,29.59,ENE,68,2.5,2.9,24,0.00,,---,0.00,VWS V14.01,2013-01-20 20:24:00,
2013-01-20 14:25:00,58.5,21.8,29.59,East,90,2.9,6.3,24,0.00,,---,0.00,VWS V14.01,2013-01-20 20:25:00,
2013-01-20 14:29:00,58.5,21.8,29.59,ESE,112,4.3,4.3,24,0.00,,---,0.00,VWS V14.01,2013-01-20 20:29:00,
2013-01-20 14:30:00,58.5,21.8,29.59,East,90,3.8,7.2,24,0.00,,---,0.00,VWS V14.01,2013-01-20 20:30:00,
2013-01-20 14:34:00,58.8,23.1,29.59,ESE,112,2.7,2.7,25,0.00,,---,0.00,VWS V14.01,2013-01-20 20:34:00,
2013-01-20 14:35:00,58.8,23.1,29.59,ESE,112,2.7,4.3,25,0.00,,---,0.00,VWS V14.01,2013-01-20 20:35:00,
2013-01-20 14:39:00,59.0,22.3,29.59,ESE,112,1.6,2.9,24,0.00,,---,0.00,VWS V14.01,2013-01-20 20:39:00,
2013-01-20 14:40:00,59.0,22.3,29.59,ESE,112,2.9,4.3,24,0.00,,---,0.00,VWS V14.01,2013-01-20 20:40:00,
2013-01-20 14:44:00,59.0,22.3,29.59,ESE,112,5.4,5.4,24,0.00,,---,0.00,VWS V14.01,2013-01-20 20:44:00,
2013-01-20 14:45:00,59.0,22.3,29.59,ENE,68,3.4,6.3,24,0.00,,---,0.00,VWS V14.01,2013-01-20 20:45:00,
2013-01-20 14:49:00,58.8,22.1,29.59,East,90,2.7,3.4,24,0.00,,---,0.00,VWS V14.01,2013-01-20 20:49:00,
2013-01-20 14:50:00,58.8,22.1,29.59,SSE,158,3.4,7.6,24,0.00,,---,0.00,VWS V14.01,2013-01-20 20:50:00,
2013-01-20 14:54:00,58.6,22.0,29.59,ESE,112,4.3,4.3,24,0.00,,---,0.00,VWS V14.01,2013-01-20 20:54:00,
2013-01-20 14:55:00,58.6,22.0,29.59,East,90,3.8,6.5,24,0.00,,---,0.00,VWS V14.01,2013-01-20 20:55:00,
2013-01-20 15:00:00,58.5,21.8,29.59,ESE,112,4.0,6.5,24,0.00,,---,0.00,VWS V14.01,2013-01-20 21:00:00,
2013-01-20 15:05:00,58.6,22.0,29.56,NE,45,2.5,3.6,24,0.00,,---,0.00,VWS V14.01,2013-01-20 21:05:00,
2013-01-20 15:10:00,58.8,22.1,29.56,ESE,112,2.5,4.0,24,0.00,,---,0.00,VWS V14.01,2013-01-20 21:10:00,
2013-01-20 15:15:00,59.0,22.3,29.56,East,90,3.1,3.8,24,0.00,,---,0.00,VWS V14.01,2013-01-20 21:15:00,
2013-01-20 15:20:00,59.0,22.3,29.56,East,90,1.6,4.0,24,0.00,,---,0.00,VWS V14.01,2013-01-20 21:20:00,
2013-01-20 15:25:00,59.0,22.3,29.56,ENE,68,3.6,4.3,24,0.00,,---,0.00,VWS V14.01,2013-01-20 21:25:00,
2013-01-20 15:30:00,59.0,22.3,29.56,ENE,68,2.5,3.1,24,0.00,,---,0.00,VWS V14.01,2013-01-20 21:30:00,
2013-01-20 15:35:00,59.0,22.3,29.56,ESE,112,3.8,3.8,24,0.00,,---,0.00,VWS V14.01,2013-01-20 21:35:00,
2013-01-20 15:40:00,59.0,22.3,29.56,ENE,68,3.4,4.0,24,0.00,,---,0.00,VWS V14.01,2013-01-20 21:40:00,
2013-01-20 15:41:00,59.0,22.3,29.56,ENE,68,2.2,4.0,24,0.00,,---,0.00,VWS V14.01,2013-01-20 21:41:00,
2013-01-20 15:45:00,58.8,22.1,29.56,SE,135,2.7,4.3,24,0.00,,---,0.00,VWS V14.01,2013-01-20 21:45:00,
2013-01-20 15:46:00,59.0,22.3,29.56,ESE,112,2.7,2.7,24,0.00,,---,0.00,VWS V14.01,2013-01-20 21:46:00,
2013-01-20 15:50:00,59.2,22.4,29.56,SSW,202,2.0,3.4,24,0.00,,---,0.00,VWS V14.01,2013-01-20 21:50:00,
2013-01-20 15:51:00,59.2,22.4,29.56,ESE,112,2.7,2.7,24,0.00,,---,0.00,VWS V14.01,2013-01-20 21:51:00,
2013-01-20 15:55:00,59.4,22.6,29.56,ENE,68,3.6,4.0,24,0.00,,---,0.00,VWS V14.01,2013-01-20 21:55:00,
2013-01-20 15:56:00,59.4,22.6,29.56,ENE,68,3.8,3.8,24,0.00,,---,0.00,VWS V14.01,2013-01-20 21:56:00,
2013-01-20 16:00:00,59.2,22.4,29.56,ESE,112,2.7,4.3,24,0.00,,---,0.00,VWS V14.01,2013-01-20 22:00:00,
2013-01-20 16:01:00,59.2,22.4,29.56,ESE,112,1.6,4.7,24,0.00,,---,0.00,VWS V14.01,2013-01-20 22:01:00,
2013-01-20 16:05:00,59.0,22.3,29.56,ESE,112,3.4,4.7,24,0.00,,---,0.00,VWS V14.01,2013-01-20 22:05:00,
2013-01-20 16:06:00,59.0,22.3,29.56,ESE,112,2.7,3.8,24,0.00,,---,0.00,VWS V14.01,2013-01-20 22:06:00,
2013-01-20 16:10:00,58.8,22.1,29.56,ESE,112,2.7,3.8,24,0.00,,---,0.00,VWS V14.01,2013-01-20 22:10:00,
2013-01-20 16:11:00,58.8,22.1,29.56,ENE,68,2.7,4.3,24,0.00,,---,0.00,VWS V14.01,2013-01-20 22:11:00,
2013-01-20 16:15:00,58.8,22.1,29.56,SE,135,3.6,4.9,24,0.00,,---,0.00,VWS V14.01,2013-01-20 22:15:00,
2013-01-20 16:16:00,58.8,22.1,29.56,ESE,112,2.0,4.3,24,0.00,,---,0.00,VWS V14.01,2013-01-20 22:16:00,
2013-01-20 16:20:00,58.6,22.0,29.56,ESE,112,3.4,5.6,24,0.00,,---,0.00,VWS V14.01,2013-01-20 22:20:00,
2013-01-20 16:22:00,58.8,22.1,29.56,East,90,2.7,3.4,24,0.00,,---,0.00,VWS V14.01,2013-01-20 22:22:00,
2013-01-20 16:25:00,58.8,22.1,29.56,East,90,2.0,3.4,24,0.00,,---,0.00,VWS V14.01,2013-01-20 22:25:00,
2013-01-20 16:27:00,58.8,22.1,29.56,SSE,158,2.9,3.4,24,0.00,,---,0.00,VWS V14.01,2013-01-20 22:27:00,
2013-01-20 16:30:00,59.0,22.3,29.56,ESE,112,3.4,3.6,24,0.00,,---,0.00,VWS V14.01,2013-01-20 22:30:00,
2013-01-20 16:32:00,58.8,22.1,29.56,SE,135,3.6,3.8,24,0.00,,---,0.00,VWS V14.01,2013-01-20 22:32:00,
2013-01-20 16:35:00,58.8,22.1,29.56,East,90,2.7,3.8,24,0.00,,---,0.00,VWS V14.01,2013-01-20 22:35:00,
2013-01-20 16:38:00,58.8,22.1,29.56,East,90,2.2,3.6,24,0.00,,---,0.00,VWS V14.01,2013-01-20 22:38:00,
2013-01-20 16:40:00,58.8,22.1,29.56,East,90,2.2,3.6,24,0.00,,---,0.00,VWS V14.01,2013-01-20 22:40:00,
2013-01-20 16:43:00,58.8,22.1,29.56,ENE,68,2.5,3.1,24,0.00,,---,0.00,VWS V14.01,2013-01-20 22:43:00,
2013-01-20 16:45:00,58.8,22.1,29.56,ENE,68,2.5,3.1,24,0.00,,---,0.00,VWS V14.01,2013-01-20 22:45:00,
2013-01-20 16:48:00,58.6,22.0,29.56,ENE,68,2.0,3.4,24,0.00,,---,0.00,VWS V14.01,2013-01-20 22:48:00,
2013-01-20 16:50:00,58.6,22.0,29.56,ENE,68,2.2,3.4,24,0.00,,---,0.00,VWS V14.01,2013-01-20 22:50:00,
2013-01-20 16:53:00,58.5,21.8,29.56,ENE,68,0.0,2.2,24,0.00,,---,0.00,VWS V14.01,2013-01-20 22:53:00,
2013-01-20 16:55:00,58.5,21.8,29.56,ENE,68,1.1,2.2,24,0.00,,---,0.00,VWS V14.01,2013-01-20 22:55:00,
2013-01-20 16:58:00,58.5,21.8,29.56,ENE,68,2.5,2.5,24,0.00,,---,0.00,VWS V14.01,2013-01-20 22:58:00,
2013-01-20 17:00:00,58.3,21.7,29.56,ESE,112,1.6,3.1,24,0.00,,---,0.00,VWS V14.01,2013-01-20 23:00:00,
2013-01-20 17:03:00,57.9,21.4,29.53,East,90,1.1,2.2,24,0.00,,---,0.00,VWS V14.01,2013-01-20 23:03:00,
2013-01-20 17:05:00,57.9,21.4,29.53,East,90,1.1,2.2,24,0.00,,---,0.00,VWS V14.01,2013-01-20 23:05:00,
2013-01-20 17:08:00,57.6,21.1,29.53,East,90,1.1,2.0,24,0.00,,---,0.00,VWS V14.01,2013-01-20 23:08:00,
2013-01-20 17:10:00,57.6,21.1,29.53,East,90,1.3,2.0,24,0.00,,---,0.00,VWS V14.01,2013-01-20 23:10:00,
2013-01-20 17:13:00,57.0,21.6,29.53,East,90,1.6,2.2,25,0.00,,---,0.00,VWS V14.01,2013-01-20 23:13:00,
2013-01-20 17:15:00,56.7,21.3,29.53,East,90,2.0,2.2,25,0.00,,---,0.00,VWS V14.01,2013-01-20 23:15:00,
2013-01-20 17:18:00,56.5,21.1,29.53,East,90,0.0,2.0,25,0.00,,---,0.00,VWS V14.01,2013-01-20 23:18:00,
2013-01-20 17:20:00,56.1,20.8,29.53,East,90,0.0,2.0,25,0.00,,---,0.00,VWS V14.01,2013-01-20 23:20:00,
2013-01-20 17:23:00,55.6,20.3,29.53,East,90,1.1,1.1,25,0.00,,---,0.00,VWS V14.01,2013-01-20 23:23:00,
2013-01-20 17:25:00,55.4,20.2,29.53,East,90,1.1,1.1,25,0.00,,---,0.00,VWS V14.01,2013-01-20 23:25:00,
2013-01-20 17:28:00,55.0,20.8,29.53,East,90,0.0,1.1,26,0.00,,---,0.00,VWS V14.01,2013-01-20 23:28:00,
2013-01-20 17:30:00,54.7,20.5,29.53,East,90,0.0,1.1,26,0.00,,---,0.00,VWS V14.01,2013-01-20 23:30:00,
2013-01-20 17:33:00,54.0,19.9,29.56,NNE,22,2.5,2.7,26,0.00,,---,0.00,VWS V14.01,2013-01-20 23:33:00,
2013-01-20 17:35:00,53.8,19.7,29.56,NNE,22,2.0,2.7,26,0.00,,---,0.00,VWS V14.01,2013-01-20 23:35:00,
2013-01-20 17:38:00,53.6,19.6,29.56,NNE,22,0.0,2.5,26,0.00,,---,0.00,VWS V14.01,2013-01-20 23:38:00,
2013-01-20 17:40:00,53.4,19.4,29.56,NNE,22,0.0,2.5,26,0.00,,---,0.00,VWS V14.01,2013-01-20 23:40:00,
2013-01-20 17:43:00,53.2,19.3,29.56,NNE,22,0.9,1.1,26,0.00,,---,0.00,VWS V14.01,2013-01-20 23:43:00,
2013-01-20 17:45:00,53.1,19.1,29.56,NNE,22,1.6,2.0,26,0.00,,---,0.00,VWS V14.01,2013-01-20 23:45:00,
2013-01-20 17:49:00,52.9,19.0,29.56,NNE,22,0.9,1.6,26,0.00,,---,0.00,VWS V14.01,2013-01-20 23:49:00,
2013-01-20 17:50:00,52.9,19.0,29.56,NNE,22,0.0,1.6,26,0.00,,---,0.00,VWS V14.01,2013-01-20 23:50:00,
2013-01-20 17:54:00,52.3,19.4,29.56,North,0,1.1,2.0,27,0.00,,---,0.00,VWS V14.01,2013-01-20 23:54:00,
2013-01-20 17:55:00,52.3,18.5,29.56,North,0,2.0,2.0,26,0.00,,---,0.00,VWS V14.01,2013-01-20 23:55:00,
2013-01-20 17:59:00,51.8,18.9,29.56,NNE,22,2.0,2.5,27,0.00,,---,0.00,VWS V14.01,2013-01-20 23:59:00,
2013-01-20 18:00:00,51.8,18.9,29.56,NNE,22,2.7,2.7,27,0.00,,---,0.00,VWS V14.01,2013-01-21 00:00:00,
2013-01-20 18:04:00,51.4,18.6,29.56,NNE,22,1.6,2.7,27,0.00,,---,0.00,VWS V14.01,2013-01-21 00:04:00,
2013-01-20 18:05:00,51.4,18.6,29.56,NNE,22,2.0,2.7,27,0.00,,---,0.00,VWS V14.01,2013-01-21 00:05:00,
2013-01-20 18:09:00,51.1,18.3,29.56,NNE,22,2.5,2.9,27,0.00,,---,0.00,VWS V14.01,2013-01-21 00:09:00,
2013-01-20 18:10:00,51.1,18.3,29.56,NNE,22,2.0,2.9,27,0.00,,---,0.00,VWS V14.01,2013-01-21 00:10:00,
2013-01-20 18:14:00,50.9,18.1,29.56,NNE,22,2.0,2.7,27,0.00,,---,0.00,VWS V14.01,2013-01-21 00:14:00,
2013-01-20 18:15:00,50.9,18.1,29.56,NNE,22,2.0,2.7,27,0.00,,---,0.00,VWS V14.01,2013-01-21 00:15:00,
2013-01-20 18:19:00,50.7,18.0,29.56,NNE,22,2.7,2.7,27,0.00,,---,0.00,VWS V14.01,2013-01-21 00:19:00,
2013-01-20 18:20:00,50.7,18.0,29.56,NNE,22,2.7,2.7,27,0.00,,---,0.00,VWS V14.01,2013-01-21 00:20:00,
2013-01-20 18:24:00,50.7,18.8,29.56,NNE,22,1.6,2.7,28,0.00,,---,0.00,VWS V14.01,2013-01-21 00:24:00,
2013-01-20 18:25:00,50.7,18.8,29.56,NNE,22,1.6,2.7,28,0.00,,---,0.00,VWS V14.01,2013-01-21 00:25:00,
2013-01-20 18:29:00,50.4,18.5,29.56,NNE,22,2.2,2.2,28,0.00,,---,0.00,VWS V14.01,2013-01-21 00:29:00,
2013-01-20 18:30:00,50.4,18.5,29.56,NNE,22,2.0,2.7,28,0.00,,---,0.00,VWS V14.01,2013-01-21 00:30:00,
2013-01-20 18:34:00,50.2,18.4,29.56,NNE,22,2.0,2.0,28,0.00,,---,0.00,VWS V14.01,2013-01-21 00:34:00,
2013-01-20 18:35:00,50.2,18.4,29.56,NNE,22,1.6,2.5,28,0.00,,---,0.00,VWS V14.01,2013-01-21 00:35:00,
2013-01-20 18:39:00,50.0,18.2,29.56,NE,45,2.5,2.5,28,0.00,,---,0.00,VWS V14.01,2013-01-21 00:39:00,
2013-01-20 18:40:00,50.0,18.2,29.56,East,90,2.2,2.7,28,0.00,,---,0.00,VWS V14.01,2013-01-21 00:40:00,
2013-01-20 18:44:00,50.0,18.2,29.56,NNE,22,0.9,2.5,28,0.00,,---,0.00,VWS V14.01,2013-01-21 00:44:00,
2013-01-20 18:45:00,50.0,18.2,29.56,NNE,22,2.5,2.9,28,0.00,,---,0.00,VWS V14.01,2013-01-21 00:45:00,
2013-01-20 18:50:00,50.0,18.2,29.56,NNE,22,1.1,2.0,28,0.00,,---,0.00,VWS V14.01,2013-01-21 00:50:00,
2013-01-20 18:55:00,50.0,18.2,29.56,NNE,22,2.2,2.2,28,0.00,,---,0.00,VWS V14.01,2013-01-21 00:55:00,
2013-01-20 19:00:00,50.0,18.2,29.56,NNE,22,1.6,1.6,28,0.00,,---,0.00,VWS V14.01,2013-01-21 01:00:00,
2013-01-20 19:05:00,49.6,17.9,29.53,NNE,22,0.0,0.0,28,0.00,,---,0.00,VWS V14.01,2013-01-21 01:05:00,
2013-01-20 19:10:00,48.7,17.9,29.53,WNW,292,0.0,0.0,29,0.00,,---,0.00,VWS V14.01,2013-01-21 01:10:00,
2013-01-20 19:15:00,48.0,18.1,29.53,WNW,292,0.0,1.1,30,0.00,,---,0.00,VWS V14.01,2013-01-21 01:15:00,
2013-01-20 19:20:00,47.3,18.2,29.53,WNW,292,0.0,0.0,31,0.00,,---,0.00,VWS V14.01,2013-01-21 01:20:00,
2013-01-20 19:25:00,46.9,17.9,29.53,WNW,292,0.0,0.0,31,0.00,,---,0.00,VWS V14.01,2013-01-21 01:25:00,
2013-01-20 19:30:00,46.6,17.6,29.53,WNW,292,0.0,0.0,31,0.00,,---,0.00,VWS V14.01,2013-01-21 01:30:00,
2013-01-20 19:35:00,46.4,17.4,29.56,WNW,292,0.0,0.0,31,0.00,,---,0.00,VWS V14.01,2013-01-21 01:35:00,
2013-01-20 19:40:00,46.0,17.9,29.56,WNW,292,0.0,0.0,32,0.00,,---,0.00,VWS V14.01,2013-01-21 01:40:00,
2013-01-20 19:45:00,46.0,17.9,29.56,WNW,292,0.0,0.0,32,0.00,,---,0.00,VWS V14.01,2013-01-21 01:45:00,
2013-01-20 19:50:00,45.9,17.7,29.56,WNW,292,0.0,0.0,32,0.00,,---,0.00,VWS V14.01,2013-01-21 01:50:00,
2013-01-20 19:51:00,45.9,17.7,29.56,WNW,292,0.0,0.0,32,0.00,,---,0.00,VWS V14.01,2013-01-21 01:51:00,
2013-01-20 19:55:00,45.7,17.5,29.56,WNW,292,0.0,0.0,32,0.00,,---,0.00,VWS V14.01,2013-01-21 01:55:00,
2013-01-20 19:56:00,45.7,17.5,29.56,WNW,292,0.0,0.0,32,0.00,,---,0.00,VWS V14.01,2013-01-21 01:56:00,
2013-01-20 20:00:00,45.5,17.4,29.56,WNW,292,0.0,0.0,32,0.00,,---,0.00,VWS V14.01,2013-01-21 02:00:00,
2013-01-20 20:01:00,45.5,18.1,29.56,NW,315,0.0,0.0,33,0.00,,---,0.00,VWS V14.01,2013-01-21 02:01:00,
2013-01-20 20:05:00,45.3,17.2,29.56,NNW,338,0.0,0.0,32,0.00,,---,0.00,VWS V14.01,2013-01-21 02:05:00,
2013-01-20 20:06:00,45.3,17.2,29.56,NNW,338,0.0,0.0,32,0.00,,---,0.00,VWS V14.01,2013-01-21 02:06:00,
2013-01-20 20:10:00,45.3,17.2,29.56,NNW,338,0.0,0.0,32,0.00,,---,0.00,VWS V14.01,2013-01-21 02:10:00,
2013-01-20 20:12:00,45.3,17.9,29.56,NNW,338,0.0,0.0,33,0.00,,---,0.00,VWS V14.01,2013-01-21 02:12:00,
2013-01-20 20:15:00,45.3,17.9,29.56,NNW,338,0.0,0.0,33,0.00,,---,0.00,VWS V14.01,2013-01-21 02:15:00,
2013-01-20 20:17:00,45.1,17.8,29.56,NE,45,0.0,2.0,33,0.00,,---,0.00,VWS V14.01,2013-01-21 02:17:00,
2013-01-20 20:20:00,45.1,17.8,29.56,NE,45,0.0,2.0,33,0.00,,---,0.00,VWS V14.01,2013-01-21 02:20:00,
2013-01-20 20:22:00,45.1,17.8,29.56,NE,45,0.0,2.2,33,0.00,,---,0.00,VWS V14.01,2013-01-21 02:22:00,
2013-01-20 20:25:00,45.0,18.3,29.56,NE,45,1.6,2.2,34,0.00,,---,0.00,VWS V14.01,2013-01-21 02:25:00,
2013-01-20 20:28:00,45.0,18.3,29.56,NE,45,0.9,1.6,34,0.00,,---,0.00,VWS V14.01,2013-01-21 02:28:00,
2013-01-20 20:30:00,45.1,18.5,29.56,NE,45,0.0,1.6,34,0.00,,---,0.00,VWS V14.01,2013-01-21 02:30:00,
2013-01-20 20:33:00,45.1,18.5,29.53,NE,45,2.0,2.0,34,0.00,,---,0.00,VWS V14.01,2013-01-21 02:33:00,
2013-01-20 20:35:00,45.1,18.5,29.53,NE,45,1.1,2.0,34,0.00,,---,0.00,VWS V14.01,2013-01-21 02:35:00,
2013-01-20 20:38:00,45.1,18.5,29.53,NE,45,0.0,2.2,34,0.00,,---,0.00,VWS V14.01,2013-01-21 02:38:00,
2013-01-20 20:40:00,45.1,19.1,29.53,NE,45,0.0,2.2,35,0.00,,---,0.00,VWS V14.01,2013-01-21 02:40:00,
2013-01-20 20:43:00,45.0,19.0,29.53,NE,45,0.0,1.3,35,0.00,,---,0.00,VWS V14.01,2013-01-21 02:43:00,
2013-01-20 20:45:00,45.0,19.0,29.53,NE,45,0.0,1.3,35,0.00,,---,0.00,VWS V14.01,2013-01-21 02:45:00,
2013-01-20 20:48:00,45.0,19.0,29.56,NE,45,0.0,0.0,35,0.00,,---,0.00,VWS V14.01,2013-01-21 02:48:00,
2013-01-20 20:50:00,45.1,19.1,29.56,NE,45,0.0,0.0,35,0.00,,---,0.00,VWS V14.01,2013-01-21 02:50:00,
2013-01-20 20:53:00,45.0,20.3,29.56,NE,45,2.0,2.0,37,0.00,,---,0.00,VWS V14.01,2013-01-21 02:53:00,
2013-01-20 20:55:00,44.8,20.7,29.56,WSW,248,2.5,2.5,38,0.00,,---,0.00,VWS V14.01,2013-01-21 02:55:00,
2013-01-20 20:58:00,44.6,20.6,29.56,WNW,292,0.0,2.5,38,0.00,,---,0.00,VWS V14.01,2013-01-21 02:58:00,
2013-01-20 21:00:00,44.4,20.4,29.56,NW,315,1.3,2.5,38,0.00,,---,0.00,VWS V14.01,2013-01-21 03:00:00,
2013-01-20 21:03:00,43.9,20.5,29.56,WNW,292,1.6,2.0,39,0.00,,---,0.00,VWS V14.01,2013-01-21 03:03:00,
2013-01-20 21:05:00,43.9,20.5,29.56,WNW,292,0.0,2.2,39,0.00,,---,0.00,VWS V14.01,2013-01-21 03:05:00,
2013-01-20 21:08:00,43.0,20.3,29.56,WNW,292,0.9,2.0,40,0.00,,---,0.00,VWS V14.01,2013-01-21 03:08:00,
2013-01-20 21:10:00,43.0,19.7,29.56,WNW,292,1.1,2.0,39,0.00,,---,0.00,VWS V14.01,2013-01-21 03:10:00,
2013-01-20 21:13:00,42.6,20.0,29.56,NW,315,0.0,2.2,40,0.00,,---,0.00,VWS V14.01,2013-01-21 03:13:00,
2013-01-20 21:15:00,42.6,20.0,29.56,NW,315,1.6,2.2,40,0.00,,---,0.00,VWS V14.01,2013-01-21 03:15:00,
2013-01-20 21:18:00,42.1,20.7,29.56,West,270,1.1,2.5,42,0.00,,---,0.00,VWS V14.01,2013-01-21 03:18:00,
2013-01-20 21:20:00,41.9,20.5,29.56,West,270,2.0,2.5,42,0.00,,---,0.00,VWS V14.01,2013-01-21 03:20:00,
2013-01-20 21:23:00,41.5,20.7,29.56,West,270,1.6,2.5,43,0.00,,---,0.00,VWS V14.01,2013-01-21 03:23:00,
2013-01-20 21:25:00,41.5,20.7,29.56,West,270,1.6,2.5,43,0.00,,---,0.00,VWS V14.01,2013-01-21 03:25:00,
2013-01-20 21:29:00,41.2,20.9,29.56,WNW,292,2.0,2.2,44,0.00,,---,0.00,VWS V14.01,2013-01-21 03:29:00,
2013-01-20 21:30:00,41.2,20.9,29.56,WNW,292,1.6,2.2,44,0.00,,---,0.00,VWS V14.01,2013-01-21 03:30:00,
2013-01-20 21:34:00,40.8,21.1,29.56,West,270,2.5,2.5,45,0.00,,---,0.00,VWS V14.01,2013-01-21 03:34:00,
2013-01-20 21:35:00,40.8,21.1,29.56,WSW,248,2.5,2.5,45,0.00,,---,0.00,VWS V14.01,2013-01-21 03:35:00,
2013-01-20 21:39:00,40.6,20.5,29.56,North,0,0.0,2.5,44,0.00,,---,0.00,VWS V14.01,2013-01-21 03:39:00,
2013-01-20 21:40:00,40.6,20.5,29.56,North,0,0.0,2.5,44,0.00,,---,0.00,VWS V14.01,2013-01-21 03:40:00,
2013-01-20 21:44:00,40.6,19.9,29.56,NNE,22,2.2,2.5,43,0.00,,---,0.00,VWS V14.01,2013-01-21 03:44:00,
2013-01-20 21:45:00,40.6,19.9,29.56,NNE,22,2.2,2.5,43,0.00,,---,0.00,VWS V14.01,2013-01-21 03:45:00,
2013-01-20 21:49:00,41.7,20.9,29.56,ENE,68,1.3,3.1,43,0.00,,---,0.00,VWS V14.01,2013-01-21 03:49:00,
2013-01-20 21:50:00,41.7,20.9,29.56,ENE,68,1.3,3.1,43,0.00,,---,0.00,VWS V14.01,2013-01-21 03:50:00,
2013-01-20 21:54:00,41.9,21.0,29.56,West,270,3.1,3.1,43,0.00,,---,0.00,VWS V14.01,2013-01-21 03:54:00,
2013-01-20 21:55:00,41.9,21.0,29.56,WSW,248,3.8,3.8,43,0.00,,---,0.00,VWS V14.01,2013-01-21 03:55:00,
2013-01-20 21:59:00,41.2,21.5,29.56,North,0,3.4,3.4,45,0.00,,---,0.00,VWS V14.01,2013-01-21 03:59:00,
2013-01-20 22:00:00,41.2,21.5,29.56,North,0,2.7,3.8,45,0.00,,---,0.00,VWS V14.01,2013-01-21 04:00:00,
2013-01-20 22:05:00,40.8,20.6,29.56,North,0,1.3,1.6,44,0.00,,---,0.00,VWS V14.01,2013-01-21 04:05:00,
2013-01-20 22:10:00,40.3,21.2,29.56,WNW,292,0.0,0.0,46,0.00,,---,0.00,VWS V14.01,2013-01-21 04:10:00,
2013-01-20 22:15:00,39.9,20.3,29.56,WNW,292,0.0,0.0,45,0.00,,---,0.00,VWS V14.01,2013-01-21 04:15:00,
2013-01-20 22:20:00,39.6,22.0,29.59,WNW,292,2.2,2.5,49,0.00,,---,0.00,VWS V14.01,2013-01-21 04:20:00,
2013-01-20 22:25:00,39.4,22.3,29.59,WNW,292,1.3,2.2,50,0.00,,---,0.00,VWS V14.01,2013-01-21 04:25:00,
2013-01-20 22:30:00,39.2,22.1,29.59,West,270,0.0,1.1,50,0.00,,---,0.00,VWS V14.01,2013-01-21 04:30:00,
2013-01-20 22:35:00,39.0,22.0,29.59,West,270,1.1,2.2,50,0.00,,---,0.00,VWS V14.01,2013-01-21 04:35:00,
2013-01-20 22:40:00,38.8,21.8,29.59,West,270,0.0,0.0,50,0.00,,---,0.00,VWS V14.01,2013-01-21 04:40:00,
2013-01-20 22:45:00,38.8,21.8,29.59,South,180,1.1,1.1,50,0.00,,---,0.00,VWS V14.01,2013-01-21 04:45:00,
2013-01-20 22:50:00,38.8,21.8,29.59,West,270,0.0,0.0,50,0.00,,---,0.00,VWS V14.01,2013-01-21 04:50:00,
2013-01-20 22:55:00,38.8,21.8,29.59,West,270,1.1,1.1,50,0.00,,---,0.00,VWS V14.01,2013-01-21 04:55:00,
2013-01-20 23:00:00,39.2,22.1,29.59,NW,315,0.9,2.0,50,0.00,,---,0.00,VWS V14.01,2013-01-21 05:00:00,
2013-01-20 23:01:00,39.4,22.3,29.59,NW,315,1.1,2.0,50,0.00,,---,0.00,VWS V14.01,2013-01-21 05:01:00,
2013-01-20 23:02:00,39.4,22.3,29.59,NW,315,2.5,2.5,50,0.00,,---,0.00,VWS V14.01,2013-01-21 05:02:00,
2013-01-20 23:04:00,39.4,22.3,29.59,NW,315,0.0,2.5,50,0.00,,---,0.00,VWS V14.01,2013-01-21 05:04:00,
2013-01-20 23:05:00,39.4,22.3,29.59,NW,315,0.0,2.5,50,0.00,,---,0.00,VWS V14.01,2013-01-21 05:05:00,
2013-01-20 23:09:00,39.4,22.3,29.59,West,270,1.3,2.7,50,0.00,,---,0.00,VWS V14.01,2013-01-21 05:09:00,
2013-01-20 23:10:00,39.4,22.3,29.59,West,270,1.3,2.7,50,0.00,,---,0.00,VWS V14.01,2013-01-21 05:10:00,
2013-01-20 23:14:00,39.2,22.1,29.59,West,270,1.6,2.0,50,0.00,,---,0.00,VWS V14.01,2013-01-21 05:14:00,
2013-01-20 23:15:00,39.2,22.1,29.59,West,270,1.6,2.0,50,0.00,,---,0.00,VWS V14.01,2013-01-21 05:15:00,
2013-01-20 23:19:00,39.2,22.1,29.59,WNW,292,1.6,1.6,50,0.00,,---,0.00,VWS V14.01,2013-01-21 05:19:00,
2013-01-20 23:20:00,39.2,22.1,29.59,WNW,292,0.0,2.2,50,0.00,,---,0.00,VWS V14.01,2013-01-21 05:20:00,
2013-01-20 23:24:00,39.2,22.6,29.59,ENE,68,2.0,2.7,51,0.00,,---,0.00,VWS V14.01,2013-01-21 05:24:00,
2013-01-20 23:25:00,39.2,22.6,29.59,ENE,68,2.0,2.7,51,0.00,,---,0.00,VWS V14.01,2013-01-21 05:25:00,
2013-01-20 23:29:00,39.4,22.8,29.59,ENE,68,0.0,2.0,51,0.00,,---,0.00,VWS V14.01,2013-01-21 05:29:00,
2013-01-20 23:30:00,39.4,22.8,29.59,ENE,68,0.0,2.0,51,0.00,,---,0.00,VWS V14.01,2013-01-21 05:30:00,
2013-01-20 23:34:00,39.6,22.9,29.59,ENE,68,0.0,0.0,51,0.00,,---,0.00,VWS V14.01,2013-01-21 05:34:00,
2013-01-20 23:35:00,39.6,22.9,29.59,ENE,68,0.0,0.0,51,0.00,,---,0.00,VWS V14.01,2013-01-21 05:35:00,
2013-01-20 23:39:00,39.9,24.2,29.59,SE,135,0.9,1.3,53,0.00,,---,0.00,VWS V14.01,2013-01-21 05:39:00,
2013-01-20 23:40:00,39.7,22.6,29.59,SW,225,1.3,2.0,50,0.00,,---,0.00,VWS V14.01,2013-01-21 05:40:00,
2013-01-20 23:44:00,40.3,24.1,29.59,NW,315,2.7,2.7,52,0.00,,---,0.00,VWS V14.01,2013-01-21 05:44:00,
2013-01-20 23:45:00,40.1,23.4,29.59,NNW,338,2.5,2.5,51,0.00,,---,0.00,VWS V14.01,2013-01-21 05:45:00,
2013-01-20 23:50:00,40.6,23.5,29.59,NNW,338,0.9,1.6,50,0.00,,---,0.00,VWS V14.01,2013-01-21 05:50:00,
2013-01-20 23:55:00,40.6,23.5,29.59,NNW,338,1.3,1.3,50,0.00,,---,0.00,VWS V14.01,2013-01-21 05:55:00,